Find Starlink 33931

NORAD ID: 64006 Int'l Des: 2025-101 Owner: SPXS Country: US Constellation: starlink operational
LEOCIRCULAR

当前视图

正在加载3D地球...

关于 Starlink 33931

正在加载描述...

即将过境

Passes for default location (London). Set your location on the main map for personalized predictions.

高度历史

Loading altitude history...

两行轨道根数

1 64006U 25101N 26146.39655950 .00011836 00000-0 43879-3 0 9999
2 64006 42.9990 278.7541 0001370 271.9822 88.0873 15.27591946 58968
Epoch: May 26, 2026 • Age: 13 hours

当前状态

高度 483.4 km
速度 7.63 km/s
星下点 25.57°N, 88.33°E
发射日期 May 14, 2025
运行时间 1 years
类型 internet

技术详情

分类 Payload
质量 575.00 kg
干质量 530.00 kg
总质量 575.00 kg
长度 0.30 m
直径 4.10 m
跨度 29.00 m
形状 Box + pan
制造商 SPXS
平台类型 Starlink V2MO
阶段状态 In Orbit
所有者/国家 SPXS/US

Most Searched